TIANGONG 1 (37820 NORAD) Tracking and Keplerian Element Data

This shows tracking and keplerian element data for the satellite.

Feedback or suggestion? Click here.




ElementValue
Catalog37820
NameTIANGONG 1
Epoch Orbit37398
Epoch Day91.67159643
Epoch Year2018
RAAN196.1141
Inclination42.7393
Eccentricity0.0005983
Argument of Perigee335.0657
Mean Anonmoly25.0237
Mean Motion16.46560555
Decay Rate0.06702538
L11 37820U 11053A 18091.67159643 .06702538 93469-5 14209-3 0 9996
L22 37820 42.7393 196.1141 0005983 335.0657 25.0237 16.46560555373989



Live tracking and technical data element details for TIANGONG 1 (NORAD 37820). TIANGONG 1 can be tracked NOW for your location showing map with azimuth and elevation plus other details from your city location.







IsCatalogInMostPopularTable: catalog: 37820, numindb: 27365
Update: records affected: 1



GetName: 37820 TIANGONG 1

Hit Count: updated at: Tue, 17 Sep 2024 12:55:07 GMT